[{"OBJECT_NAME":"ALTAIR (RS65S)","OBJECT_ID":"2024-199AW","EPOCH":"2026-09-12T07:24:00.824832","MEAN_MOTION":15.38489415,"ECCENTRICITY":0.0012147,"INCLINATION":97.288,"RA_OF_ASC_NODE":124.1128,"ARG_OF_PERICENTER":1.4342,"MEAN_ANOMALY":358.6937,"EPHEMERIS_TYPE":0,"CLASSIFICATION_TYPE":"U","NORAD_CAT_ID":61779,"ELEMENT_SET_NO":999,"REV_AT_EPOCH":15050,"BSTAR":0.00022100018,"MEAN_MOTION_DOT":0.00008331,"MEAN_MOTION_DDOT":0},{"OBJECT_NAME":"ASRTU-1 (AO-123)","OBJECT_ID":"2024-199AY","EPOCH":"2026-09-12T06:02:26.854080","MEAN_MOTION":15.36809081,"ECCENTRICITY":0.00134467,"INCLINATION":97.285,"RA_OF_ASC_NODE":123.1433,"ARG_OF_PERICENTER":4.1365,"MEAN_ANOMALY":355.9988,"EPHEMERIS_TYPE":0,"CLASSIFICATION_TYPE":"U","NORAD_CAT_ID":61781,"ELEMENT_SET_NO":999,"REV_AT_EPOCH":14729,"BSTAR":0.00016588046,"MEAN_MOTION_DOT":0.00005902,"MEAN_MOTION_DDOT":0},{"OBJECT_NAME":"SAMSAT-IONOSPHERE (RS75S)","OBJECT_ID":"2024-199BB","EPOCH":"2026-09-12T06:25:22.656576","MEAN_MOTION":15.66206844,"ECCENTRICITY":0.00044977,"INCLINATION":97.276,"RA_OF_ASC_NODE":133.6489,"ARG_OF_PERICENTER":334.3347,"MEAN_ANOMALY":25.7689,"EPHEMERIS_TYPE":0,"CLASSIFICATION_TYPE":"U","NORAD_CAT_ID":61784,"ELEMENT_SET_NO":999,"REV_AT_EPOCH":15115,"BSTAR":0.00053249058,"MEAN_MOTION_DOT":0.00054947,"MEAN_MOTION_DDOT":0},{"OBJECT_NAME":"RTU MIREA 1 (RS51S)","OBJECT_ID":"2024-199BC","EPOCH":"2026-09-12T02:13:21.695808","MEAN_MOTION":15.72761636,"ECCENTRICITY":0.00029608,"INCLINATION":97.2743,"RA_OF_ASC_NODE":134.9136,"ARG_OF_PERICENTER":333.5494,"MEAN_ANOMALY":26.5618,"EPHEMERIS_TYPE":0,"CLASSIFICATION_TYPE":"U","NORAD_CAT_ID":61785,"ELEMENT_SET_NO":999,"REV_AT_EPOCH":14807,"BSTAR":0.0007035058,"MEAN_MOTION_DOT":0.00095537,"MEAN_MOTION_DDOT":0},{"OBJECT_NAME":"LASARSAT","OBJECT_ID":"2024-247Q","EPOCH":"2026-09-12T00:49:47.229888","MEAN_MOTION":15.51841192,"ECCENTRICITY":0.00087336,"INCLINATION":44.9719,"RA_OF_ASC_NODE":132.2111,"ARG_OF_PERICENTER":184.2264,"MEAN_ANOMALY":175.8556,"EPHEMERIS_TYPE":0,"CLASSIFICATION_TYPE":"U","NORAD_CAT_ID":62391,"ELEMENT_SET_NO":999,"REV_AT_EPOCH":9678,"BSTAR":0.00056378323,"MEAN_MOTION_DOT":0.00034352,"MEAN_MOTION_DDOT":0},{"OBJECT_NAME":"CROCUBE","OBJECT_ID":"2024-247T","EPOCH":"2026-09-11T01:36:12.129120","MEAN_MOTION":15.54622235,"ECCENTRICITY":0.0009251,"INCLINATION":44.9695,"RA_OF_ASC_NODE":133.3082,"ARG_OF_PERICENTER":188.0193,"MEAN_ANOMALY":172.0553,"EPHEMERIS_TYPE":0,"CLASSIFICATION_TYPE":"U","NORAD_CAT_ID":62394,"ELEMENT_SET_NO":999,"REV_AT_EPOCH":9668,"BSTAR":0.00060575,"MEAN_MOTION_DOT":0.00040936,"MEAN_MOTION_DDOT":0},{"OBJECT_NAME":"TEVEL2-4","OBJECT_ID":"2025-052D","EPOCH":"2026-09-12T03:35:17.671776","MEAN_MOTION":15.3744877,"ECCENTRICITY":0.00039329,"INCLINATION":97.377,"RA_OF_ASC_NODE":151.8048,"ARG_OF_PERICENTER":124.511,"MEAN_ANOMALY":235.6506,"EPHEMERIS_TYPE":0,"CLASSIFICATION_TYPE":"U","NORAD_CAT_ID":63213,"ELEMENT_SET_NO":999,"REV_AT_EPOCH":8346,"BSTAR":0.00039355594,"MEAN_MOTION_DOT":0.00014383,"MEAN_MOTION_DDOT":0},{"OBJECT_NAME":"TEVEL2-5","OBJECT_ID":"2025-052E","EPOCH":"2026-09-11T23:39:36.446400","MEAN_MOTION":15.37221653,"ECCENTRICITY":0.00038219,"INCLINATION":97.3768,"RA_OF_ASC_NODE":151.561,"ARG_OF_PERICENTER":125.8478,"MEAN_ANOMALY":234.3122,"EPHEMERIS_TYPE":0,"CLASSIFICATION_TYPE":"U","NORAD_CAT_ID":63214,"ELEMENT_SET_NO":999,"REV_AT_EPOCH":8343,"BSTAR":0.00042836511,"MEAN_MOTION_DOT":0.0001555,"MEAN_MOTION_DDOT":0},{"OBJECT_NAME":"TEVEL2-6","OBJECT_ID":"2025-052F","EPOCH":"2026-09-11T16:11:27.768480","MEAN_MOTION":15.37182525,"ECCENTRICITY":0.00037073,"INCLINATION":97.3769,"RA_OF_ASC_NODE":151.233,"ARG_OF_PERICENTER":126.4618,"MEAN_ANOMALY":233.6969,"EPHEMERIS_TYPE":0,"CLASSIFICATION_TYPE":"U","NORAD_CAT_ID":63215,"ELEMENT_SET_NO":999,"REV_AT_EPOCH":8338,"BSTAR":0.00043937766,"MEAN_MOTION_DOT":0.00015932,"MEAN_MOTION_DDOT":0},{"OBJECT_NAME":"TEVEL2-1","OBJECT_ID":"2025-052H","EPOCH":"2026-09-11T16:06:55.852128","MEAN_MOTION":15.36542255,"ECCENTRICITY":0.00035325,"INCLINATION":97.3749,"RA_OF_ASC_NODE":150.7447,"ARG_OF_PERICENTER":138.3296,"MEAN_ANOMALY":221.8218,"EPHEMERIS_TYPE":0,"CLASSIFICATION_TYPE":"U","NORAD_CAT_ID":63217,"ELEMENT_SET_NO":999,"REV_AT_EPOCH":8336,"BSTAR":0.00043546458,"MEAN_MOTION_DOT":0.00015466,"MEAN_MOTION_DDOT":0},{"OBJECT_NAME":"TEVEL2-3","OBJECT_ID":"2025-052J","EPOCH":"2026-09-11T15:53:51.680544","MEAN_MOTION":15.36618213,"ECCENTRICITY":0.00032603,"INCLINATION":97.3752,"RA_OF_ASC_NODE":150.7708,"ARG_OF_PERICENTER":134.6279,"MEAN_ANOMALY":225.5231,"EPHEMERIS_TYPE":0,"CLASSIFICATION_TYPE":"U","NORAD_CAT_ID":63218,"ELEMENT_SET_NO":999,"REV_AT_EPOCH":8336,"BSTAR":0.00043658763,"MEAN_MOTION_DOT":0.00015543,"MEAN_MOTION_DDOT":0},{"OBJECT_NAME":"TEVEL2-2","OBJECT_ID":"2025-052K","EPOCH":"2026-09-12T03:02:51.382176","MEAN_MOTION":15.36569329,"ECCENTRICITY":0.00034806,"INCLINATION":97.3748,"RA_OF_ASC_NODE":151.2053,"ARG_OF_PERICENTER":137.3458,"MEAN_ANOMALY":222.8057,"EPHEMERIS_TYPE":0,"CLASSIFICATION_TYPE":"U","NORAD_CAT_ID":63219,"ELEMENT_SET_NO":999,"REV_AT_EPOCH":8343,"BSTAR":0.00043953792,"MEAN_MOTION_DOT":0.00015625,"MEAN_MOTION_DDOT":0},{"OBJECT_NAME":"OTP-2","OBJECT_ID":"2025-052AB","EPOCH":"2026-09-11T16:06:01.855584","MEAN_MOTION":15.25004143,"ECCENTRICITY":0.00051205,"INCLINATION":97.3738,"RA_OF_ASC_NODE":145.8147,"ARG_OF_PERICENTER":201.7884,"MEAN_ANOMALY":158.3137,"EPHEMERIS_TYPE":0,"CLASSIFICATION_TYPE":"U","NORAD_CAT_ID":63235,"ELEMENT_SET_NO":999,"REV_AT_EPOCH":8304,"BSTAR":0.00025066106,"MEAN_MOTION_DOT":0.00006186,"MEAN_MOTION_DDOT":0},{"OBJECT_NAME":"TEVEL2-9","OBJECT_ID":"2025-052AD","EPOCH":"2026-09-12T03:47:03.214176","MEAN_MOTION":15.34354133,"ECCENTRICITY":0.00058466,"INCLINATION":97.3805,"RA_OF_ASC_NODE":150.4081,"ARG_OF_PERICENTER":170.5731,"MEAN_ANOMALY":189.5622,"EPHEMERIS_TYPE":0,"CLASSIFICATION_TYPE":"U","NORAD_CAT_ID":63237,"ELEMENT_SET_NO":999,"REV_AT_EPOCH":8335,"BSTAR":0.00036784492,"MEAN_MOTION_DOT":0.00012169,"MEAN_MOTION_DDOT":0},{"OBJECT_NAME":"TEVEL2-7","OBJECT_ID":"2025-052AE","EPOCH":"2026-09-12T03:38:44.675808","MEAN_MOTION":15.33991759,"ECCENTRICITY":0.00058109,"INCLINATION":97.3805,"RA_OF_ASC_NODE":150.278,"ARG_OF_PERICENTER":172.2852,"MEAN_ANOMALY":187.8481,"EPHEMERIS_TYPE":0,"CLASSIFICATION_TYPE":"U","NORAD_CAT_ID":63238,"ELEMENT_SET_NO":999,"REV_AT_EPOCH":8334,"BSTAR":0.00035736866,"MEAN_MOTION_DOT":0.00011684,"MEAN_MOTION_DDOT":0},{"OBJECT_NAME":"TEVEL2-8","OBJECT_ID":"2025-052AF","EPOCH":"2026-09-12T03:51:41.073984","MEAN_MOTION":15.33981526,"ECCENTRICITY":0.00058022,"INCLINATION":97.3813,"RA_OF_ASC_NODE":150.2614,"ARG_OF_PERICENTER":172.1368,"MEAN_ANOMALY":187.9967,"EPHEMERIS_TYPE":0,"CLASSIFICATION_TYPE":"U","NORAD_CAT_ID":63239,"ELEMENT_SET_NO":999,"REV_AT_EPOCH":8334,"BSTAR":0.0003525571,"MEAN_MOTION_DOT":0.00011522,"MEAN_MOTION_DDOT":0},{"OBJECT_NAME":"INNOSAT 16 (RS92S7)","OBJECT_ID":"2025-155C","EPOCH":"2026-09-12T05:17:44.759616","MEAN_MOTION":15.26284839,"ECCENTRICITY":0.00086449,"INCLINATION":97.4672,"RA_OF_ASC_NODE":222.1728,"ARG_OF_PERICENTER":232.6534,"MEAN_ANOMALY":127.3917,"EPHEMERIS_TYPE":0,"CLASSIFICATION_TYPE":"U","NORAD_CAT_ID":64878,"ELEMENT_SET_NO":999,"REV_AT_EPOCH":9394,"BSTAR":0.00015643685,"MEAN_MOTION_DOT":0.00003986,"MEAN_MOTION_DDOT":0},{"OBJECT_NAME":"GEOSCAN 6 (RS92S6)","OBJECT_ID":"2025-155D","EPOCH":"2026-09-12T05:51:17.751744","MEAN_MOTION":15.31667392,"ECCENTRICITY":0.00060438,"INCLINATION":97.4658,"RA_OF_ASC_NODE":224.2776,"ARG_OF_PERICENTER":214.5919,"MEAN_ANOMALY":145.493,"EPHEMERIS_TYPE":0,"CLASSIFICATION_TYPE":"U","NORAD_CAT_ID":64879,"ELEMENT_SET_NO":999,"REV_AT_EPOCH":9408,"BSTAR":0.00024368002,"MEAN_MOTION_DOT":0.00007376,"MEAN_MOTION_DDOT":0},{"OBJECT_NAME":"GEOSCAN 1 (RS92S1)","OBJECT_ID":"2025-155E","EPOCH":"2026-09-12T05:00:19.302336","MEAN_MOTION":15.32396616,"ECCENTRICITY":0.00059311,"INCLINATION":97.4653,"RA_OF_ASC_NODE":224.4741,"ARG_OF_PERICENTER":213.8579,"MEAN_ANOMALY":146.2284,"EPHEMERIS_TYPE":0,"CLASSIFICATION_TYPE":"U","NORAD_CAT_ID":64880,"ELEMENT_SET_NO":999,"REV_AT_EPOCH":9409,"BSTAR":0.00027045816,"MEAN_MOTION_DOT":0.00008385,"MEAN_MOTION_DDOT":0},{"OBJECT_NAME":"239ALFEROV (RS61S)","OBJECT_ID":"2025-155F","EPOCH":"2026-09-12T05:37:04.990656","MEAN_MOTION":15.3514012,"ECCENTRICITY":0.00054413,"INCLINATION":97.4647,"RA_OF_ASC_NODE":225.3878,"ARG_OF_PERICENTER":208.861,"MEAN_ANOMALY":151.2333,"EPHEMERIS_TYPE":0,"CLASSIFICATION_TYPE":"U","NORAD_CAT_ID":64881,"ELEMENT_SET_NO":999,"REV_AT_EPOCH":9415,"BSTAR":0.00032950848,"MEAN_MOTION_DOT":0.00011165,"MEAN_MOTION_DDOT":0},{"OBJECT_NAME":"GEOSCAN 2 (RS92S2)","OBJECT_ID":"2025-155Q","EPOCH":"2026-09-12T04:30:22.798368","MEAN_MOTION":15.32642149,"ECCENTRICITY":0.00057918,"INCLINATION":97.4652,"RA_OF_ASC_NODE":224.6385,"ARG_OF_PERICENTER":196.8211,"MEAN_ANOMALY":163.284,"EPHEMERIS_TYPE":0,"CLASSIFICATION_TYPE":"U","NORAD_CAT_ID":64890,"ELEMENT_SET_NO":999,"REV_AT_EPOCH":9410,"BSTAR":0.0002653184,"MEAN_MOTION_DOT":0.00008288,"MEAN_MOTION_DDOT":0},{"OBJECT_NAME":"GEOSCAN 5 (RS92S5)","OBJECT_ID":"2025-155R","EPOCH":"2026-09-12T04:56:42.487584","MEAN_MOTION":15.35429866,"ECCENTRICITY":0.00043124,"INCLINATION":97.4641,"RA_OF_ASC_NODE":225.5284,"ARG_OF_PERICENTER":211.8274,"MEAN_ANOMALY":148.271,"EPHEMERIS_TYPE":0,"CLASSIFICATION_TYPE":"U","NORAD_CAT_ID":64891,"ELEMENT_SET_NO":999,"REV_AT_EPOCH":9416,"BSTAR":0.00033159659,"MEAN_MOTION_DOT":0.00011339,"MEAN_MOTION_DDOT":0},{"OBJECT_NAME":"GEOSCAN 4 (RS92S4)","OBJECT_ID":"2025-155S","EPOCH":"2026-09-12T05:53:26.384928","MEAN_MOTION":15.35626042,"ECCENTRICITY":0.0004211,"INCLINATION":97.4647,"RA_OF_ASC_NODE":225.646,"ARG_OF_PERICENTER":210.4368,"MEAN_ANOMALY":149.6631,"EPHEMERIS_TYPE":0,"CLASSIFICATION_TYPE":"U","NORAD_CAT_ID":64892,"ELEMENT_SET_NO":999,"REV_AT_EPOCH":9417,"BSTAR":0.00031476144,"MEAN_MOTION_DOT":0.00010826,"MEAN_MOTION_DDOT":0}]